SCP
0 0 0 0 0 0 0 0 0 0 0 0 0 0 0 0 0 0 0 0 0 0 0 0 0 0 0 0 0 0 0 0 0 0 0 0 0 0 0 0 0 0 0 0 0 0 0 0 0 0 0 0 0 0
0 0 0 0 0 0 0 0 0 0 0 0 0 0 0 0 0 0 0 0 0 0 0 0 0 0 0 0 0 0 0 0 0 0 0 0 0 0 0 0 -0 0 0 0 0 0 0 0 0 0 0 0 0 0
0 0 0 0 0 0 0 0 0 0 0 0 0 0 0 0 0 0 0 0 0 0 0 0 0 0 0 0 0 0 0 0 0 0 0 0 0 0 0 0 -0 0 0 0 0 0 0 0 0 0 0 0 0 0
0 0 0 0 0 0 0 0 0 0 0 0 0 0 0 0 0 0 0 0 0 0 0 0 0 0 0 0 0 0 0 0 0 0 0 0 0 0 0 0 0 0 -0 0 0 0 0 0 0 0 0 0 0 0
0 0 0 0 0 0 0 0 0 0 0 0 0 0 0 0 0 0 0 0 0 0 0 0 0 0 0 0 0 0 0 0 0 0 0 0 0 0 0 0 0 0 0 0 0 0 0 0 0 0 0 0 0 0
0 0 0 0 0 0 0 0 0 0 0 0 0 0 0 0 0 0 0 0 0 0 0 0 0 0 0 0 0 0 0 0 0 0 0 0 0 0 0 0 -0 -0 0 0 0 0 0 0 0 0 0 0 0 0
0 0 0 0 0 0 0 0 0 0 0 0 0 0 0 0 0 0 0 0 0 0 0 0 0 0 0 0 0 0 0 0 0 0 0 0 0 0 0 0 -0 -0 0 0 0 0 0 0 0 0 0 0 0 0
0 0 0 0 0 0 0 0 0 0 0 0 0 0 0 0 0 0 0 0 0 0 0 0 0 0 0 0 0 0 0 0 0 0 0 0 0 0 0 0 0 0 0 0 0 0 0 0 0 0 0 0 0 0
0 0 0 0 0 0 0 0 0 0 0 0 0 0 0 0 0 0 0 0 0 0 0 0 0 0 0 0 0 0 0 0 0 0 0 0 0 0 0 0 0 0 0 0 0 0 0 0 0 0 0 0 0 0
0 0 0 0 0 0 0 0 0 0 0 0 0 0 0 0 0 0 0 0 0 0 0 0 0 0 0 0 0 0 0 0 0 0 0 0 0 0 0 0 0 -0 0 0 0 0 0 0 0 0 0 0 0 0
0 0 0 0 0 0 0 0 0 0 0 0 0 0 0 0 0 0 0 0 0 0 0 0 0 0 0 0 0 0 0 0 0 0 0 0 0 0 0 -0 -0 0 0 0 0 0 0 0 0 0 0 0 0 0
0 0 0 0 0 0 0 0 0 0 0 0 0 0 0 0 0 0 0 0 0 0 0 0 0 0 0 0 0 0 0 0 0 0 0 0 0 0 0 0 0 0 0 0 0 0 0 0 0 0 0 0 0 0
0 0 0 0 0 0 0 0 0 -0 0 0 0 0 0 0 0 0 0 0 0 0 0 0 0 0 0 0 0 0 0 0 0 0 0 0 0 0 0 0 0 0 0 0 0 0 0 0 0 0 0 0 0 0
0 0 0 0 0 0 0 0 -0 0 0 0 0 0 0 0 0 0 0 0 0 0 0 0 0 0 0 0 0 0 0 0 0 0 0 0 0 0 0 0 0 0 0 0 0 0 0 0 0 0 0 0 0 0
0 0 0 0 0 0 0 0 -0 0 0 0 0 0 0 -0 -0 0 0 0 0 0 0 0 0 0 0 0 0 0 0 0 0 0 0 0 0 0 0 0 0 0 0 0 0 0 0 0 0 0 0 0 0 0
-0 0 0 -0 0 0 0 0 0 0 0 0 0 0 -0 0 0 0 0 0 0 0 0 0 0 0 0 0 0 0 0 0 0 -0 0 0 0 0 0 0 0 0 0 0 0 0 0 0 0 0 0 0 0 0
-0 0 -0 0 0 0 0 0 0 0 0 0 0 -0 -0 0 0 0 0 0 0 0 0 0 -0 -0 0 0 -0 0 0 0 -0 -0 -0 0 0 0 0 0 0 0 0 0 0 0 0 0 0 0 0 0 0 0
0 -0 -0 -0 -0 0 -0 0 0 0 0 0 0 0 0 0 0 0 0 0 0 0 0 0 -0 -0 -0 -0 -0 -0 -0 -0 0 0 0 -0 -0 0 0 0 0 -0 -0 -0 -0 0 0 0 0 0 0 0 0 0
-0 -0 0 -0 -0 -0 0 0 0 0 0 0 0 0 0 0 -0 -0 0 0 0 0 -0 -0 -0 -0 -0 -0 0 0 0 0 0 0 0 0 -0 -0 0 0 -0 -0 0 0 -0 -0 -0 -0 -0 0 0 0 0 0
-0 0 -0 -0 -0 -0 0 0 -0 -0 -0 0 0 -0 -0 0 0 -0 -0 0 0 0 0 0 0 -0 -0 0 0 0 -0 0 0 0 0 0 0 -0 0 -0 -0 -0 -0 -0 -0 -0 0 0 0 -0 -0 0 0 0
-0 -0 -0 -0 -0 -0 -0 -0 -0 -0 -0 -0 -0 -0 0 0 0 0 0 0 0 0 0 0 -0 -0 0 -0 -0 -0 -0 0 0 0 0 0 -0 -0 -0 -0 0 -0 -0 -0 0 0 0 0 -0 -0 0 -0 0 0
-0 -0 -0 -0 -0 -0 -0 -0 -0 -0 -0 0 -0 -0 0 0 0 0 0 0 0 0 0 0 -0 -0 0 -0 -0 -0 -0 -0 -0 0 0 0 -0 -0 -0 -0 -0 -0 0 0 0 0 0 0 0 0 0 0 0 0
-0 -0 0 -0 -0 -0 -0 0 0 0 -0 0 0 0 0 0 0 0 -0 -0 -0 0 0 0 -0 -0 -0 -0 -0 0 -0 0 0 0 0 0 -0 -0 0 0 0 0 0 0 0 0 0 0 0 0 0 0 0 0
-0 -0 -0 -0 -0 -0 0 0 0 0 0 0 0 0 0 0 0 0 -0 -0 -0 -0 -0 -0 -0 -0 -0 0 -0 -0 0 0 0 0 -0 -0 0 0 0 0 -0 -0 0 -0 0 0 0 0 -0 -0 -0 -0 0 0
-0 -0 -0 -0 -0 -0 -0 0 0 0 0 0 0 0 0 0 0 0 0 -0 -0 -0 -0 -0 -0 0 0 0 0 0 0 0 0 -0 -0 0 -0 -0 0 0 0 0 -0 0 0 0 0 0 0 -0 -0 -0 -0 -0
-0 0 -0 -0 -0 -0 -0 0 -0 0 0 0 0 0 0 0 0 0 0 0 0 0 0 0 0 0 0 0 0 0 0 0 0 0 0 -0 0 -0 0 -0 0 -0 -0 -0 0 0 0 -0 -0 -0 0 0 0 0
-0 -0 -0 0 0 0 0 0 -0 0 0 0 0 0 -0 0 -0 -0 0 0 0 0 0 0 0 0 0 0 0 -0 0 0 0 0 -0 0 0 0 0 -0 -0 0 -0 -0 -0 -0 0 -0 -0 -0 -0 0 0 0
-0 -0 -0 0 0 0 0 0 0 -0 -0 0 0 0 0 -0 0 0 -0 -0 0 -0 0 0 0 0 -0 -0 -0 -0 0 0 0 0 0 0 0 0 0 -0 -0 -0 -0 -0 -0 0 0 0 -0 -0 -0 -0 -0 0
0 0 -0 -0 -0 -0 -0 0 0 0 0 0 0 0 -0 -0 0 0 0 0 0 0 0 0 -0 -0 -0 -0 0 0 0 0 0 -0 -0 0 0 0 -0 0 -0 0 0 0 0 0 0 -0 -0 -0 -0 -0 0 0
0 0 0 -0 -0 0 0 -0 0 -0 -0 -0 0 -0 0 0 0 0 0 0 0 0 0 -0 -0 -0 -0 0 0 0 0 0 0 0 0 -0 0 -0 0 -0 -0 -0 0 0 0 0 -0 -0 -0 0 0 0 0 0
0 0 0 0 -0 0 -0 -0 -0 0 0 -0 -0 -0 -0 0 0 0 0 0 0 0 0 0 -0 -0 -0 0 -0 0 -0 0 -0 -0 0 -0 0 0 -0 -0 0 -0 -0 -0 0 0 0 -0 -0 -0 0 0 0 -0
0 0 0 0 -0 -0 0 0 0 -0 0 0 -0 -0 0 0 0 0 -0 0 0 0 0 -0 -0 -0 0 0 -0 -0 -0 -0 -0 -0 -0 -0 0 -0 -0 -0 -0 0 -0 0 0 0 0 0 0 -0 -0 -0 0 -0
0 0 0 0 0 -0 0 0 0 -0 -0 -0 0 -0 0 0 0 0 0 0 0 -0 0 0 0 0 -0 -0 -0 -0 -0 -0 0 0 -0 -0 -0 -0 0 0 0 -0 -0 -0 0 0 -0 -0 -0 0 0 -0 -0 -0
Wind_Speed_500mb
58 56 51 47 41 37 35 37 41 42 45 49 41 32 18 14 10 9 11 10 13 15 36 26 24 23 18 16 13 4 10 12 12 9 8 9 13 5 11 20 5 14 11 18 20 17 18 9 20 9 11 10 15 13
65 54 45 42 37 36 39 41 44 42 49 45 35 25 19 16 13 10 10 9 15 22 29 29 30 29 25 22 19 5 8 7 8 3 6 7 12 15 20 16 6 4 13 5 9 4 13 5 11 11 2 4 8 17
54 50 46 40 37 42 46 46 44 43 43 39 30 21 18 18 15 13 13 13 15 22 40 35 29 24 24 24 14 13 10 6 5 6 10 4 8 19 9 14 5 10 24 7 13 13 13 18 17 15 4 3 5 10
51 47 44 41 42 46 45 46 39 41 37 31 21 17 17 14 17 15 12 11 11 13 14 5 7 14 17 24 24 20 18 7 8 12 12 6 8 19 17 24 21 21 5 18 15 11 11 13 14 17 13 9 14 16
51 50 47 50 52 51 47 41 35 35 29 21 17 16 13 14 15 14 15 18 15 11 12 26 31 19 18 19 22 20 16 16 18 9 7 9 27 18 21 22 22 32 21 8 11 17 6 6 4 10 14 12 13 17
50 49 55 55 53 50 40 34 33 26 21 20 19 16 10 8 5 5 6 8 17 10 15 8 8 7 30 21 22 20 16 18 25 9 12 22 36 8 7 12 27 29 26 7 12 15 17 16 18 11 11 12 13 20
53 55 55 51 43 39 35 33 28 23 21 24 22 20 13 9 10 13 5 6 16 9 6 13 12 23 25 22 25 22 21 24 26 19 17 33 28 14 6 22 41 36 28 8 8 13 17 11 8 5 5 10 18 25
57 48 44 40 36 39 35 29 26 21 18 18 19 17 9 10 16 17 24 22 7 7 9 6 11 19 27 18 16 26 26 25 15 17 18 20 19 13 10 27 25 23 22 16 11 13 9 3 1 3 6 14 25 25
45 40 37 35 33 26 32 31 24 23 20 17 18 7 9 10 12 10 5 10 14 10 7 10 11 4 14 18 14 17 17 10 19 15 25 15 10 12 18 21 17 14 13 9 9 4 12 6 5 5 12 13 19 21
37 35 35 30 31 37 30 26 25 22 22 15 7 6 10 11 10 10 5 10 14 13 14 20 31 18 6 12 12 6 15 11 7 14 19 8 20 45 45 36 22 21 20 14 12 12 12 3 1 4 6 11 13 18
34 28 29 37 32 35 30 30 26 24 18 13 11 2 11 6 6 8 9 11 13 9 15 21 27 24 10 9 7 7 5 6 6 8 9 7 9 21 24 28 31 25 13 1 3 3 4 4 5 3 7 11 12 15
35 40 37 28 31 33 31 28 26 25 12 10 4 6 5 8 8 8 7 8 10 8 10 13 13 14 11 3 5 4 7 5 8 6 3 6 8 14 17 16 16 11 12 13 8 3 7 6 6 4 4 8 12 14
40 32 31 31 30 29 27 26 29 22 13 7 6 6 6 5 1 10 14 9 8 9 6 8 7 8 11 7 4 4 9 9 7 5 6 8 2 10 8 12 14 17 18 14 6 6 5 8 5 5 5 7 11 17
39 29 29 28 26 25 24 25 33 30 11 8 12 3 9 11 11 12 13 4 6 14 5 9 11 8 7 8 8 6 10 5 6 7 7 6 12 15 11 12 18 19 14 10 5 9 9 4 8 0 2 6 11 17
30 27 25 26 25 24 26 30 39 29 3 10 9 6 16 24 16 14 11 17 8 15 8 4 7 8 7 6 6 7 4 6 7 6 6 9 6 6 5 17 19 15 9 1 6 7 9 4 6 5 7 6 12 18
32 34 23 24 25 26 29 34 31 6 6 8 11 12 19 19 12 8 11 7 5 8 4 3 3 6 8 6 9 12 7 7 5 2 8 2 9 3 4 18 18 9 4 8 9 10 8 8 3 1 5 4 7 16
30 12 27 29 30 35 40 26 12 9 10 8 11 19 19 18 16 13 9 4 6 5 2 4 4 8 11 8 7 7 5 6 10 11 1 5 12 6 6 18 14 8 13 13 7 9 9 7 5 1 5 3 7 13
27 30 33 35 32 33 20 10 6 10 13 18 15 10 5 11 15 17 10 4 6 4 5 4 2 6 7 9 9 13 9 6 1 1 4 2 6 5 11 16 11 11 16 9 8 10 8 5 3 1 6 9 9 13
28 34 41 38 28 16 8 8 6 8 17 10 9 15 14 11 13 14 11 8 6 7 10 4 6 6 5 1 17 16 21 20 12 14 11 7 9 17 17 10 11 17 13 14 12 14 13 8 6 3 8 9 12 14
22 26 33 29 22 5 7 6 7 8 9 8 12 13 13 10 12 10 12 14 18 9 7 5 7 11 6 14 18 9 4 3 10 11 9 17 21 21 13 17 16 13 18 16 13 18 12 6 9 14 12 12 14 17
26 17 26 20 4 7 4 6 6 7 10 11 9 13 10 10 13 18 18 18 17 9 7 15 22 25 18 13 8 5 4 5 12 3 13 12 17 20 18 18 12 20 14 14 14 14 13 8 9 12 10 17 13 6
12 22 12 7 2 1 4 4 4 5 6 13 12 10 11 9 14 18 19 19 17 22 18 20 20 17 17 13 11 7 4 5 11 10 4 9 12 18 17 17 14 15 14 13 13 13 11 6 6 7 10 9 17 19
18 12 4 4 3 4 3 3 4 5 4 4 8 8 8 4 8 3 6 8 8 5 14 15 16 16 14 11 10 17 21 5 8 14 13 13 11 19 17 14 14 16 13 14 11 10 8 7 6 5 7 8 7 11
11 4 5 6 8 5 8 7 5 4 4 4 4 6 7 8 12 7 2 2 6 11 13 17 17 17 15 16 9 3 1 3 5 18 19 17 23 19 15 18 14 16 13 15 14 13 11 10 7 4 7 11 9 8
5 4 7 7 8 5 6 5 8 7 4 2 1 5 3 8 4 3 5 7 13 11 10 11 14 10 9 3 8 2 7 14 11 16 19 29 21 19 21 17 16 15 15 16 12 11 10 8 5 7 7 7 13 12
6 11 10 8 9 4 1 4 3 6 7 9 7 5 3 3 3 1 4 7 8 11 12 12 10 10 2 1 3 9 12 7 7 18 26 17 14 28 21 19 16 14 14 11 9 10 9 6 9 8 12 14 13 10
5 3 4 0 1 4 6 7 10 10 5 4 4 10 10 5 5 5 2 8 12 13 12 8 2 2 6 7 10 15 14 14 20 30 23 22 19 20 18 15 17 12 13 12 12 9 10 9 7 5 4 6 11 10
4 4 1 4 9 12 5 6 4 5 6 6 9 4 5 7 5 7 8 14 13 13 8 8 17 7 10 16 18 17 13 14 22 23 24 22 19 17 21 16 16 18 15 14 12 9 8 6 8 6 5 8 11 11
5 8 8 8 12 8 5 5 4 5 4 6 7 6 8 7 10 11 13 15 10 9 9 17 15 14 13 19 16 15 15 16 18 24 27 21 18 14 12 10 12 12 15 14 11 9 10 7 9 5 5 6 4 5
6 8 6 8 5 3 4 8 2 6 4 5 4 2 4 4 7 11 10 8 12 11 17 10 10 8 13 16 18 14 13 14 5 7 18 13 13 18 11 13 14 11 15 12 14 14 14 7 6 6 4 4 4 4
5 5 7 4 4 3 10 21 16 7 9 6 8 6 4 5 7 14 11 20 22 16 9 10 17 19 20 19 16 17 14 9 14 18 14 12 15 10 7 8 10 12 10 8 11 8 2 2 2 3 1 3 5 1
5 6 5 5 4 24 12 10 4 4 11 13 8 10 9 8 8 12 11 9 20 17 12 10 16 19 17 17 20 25 22 18 16 15 11 17 17 12 7 7 7 7 7 7 6 4 4 1 1 5 6 5 5 5
6 5 9 5 4 3 17 17 10 4 6 26 17 15 12 6 7 13 15 20 15 9 16 19 19 16 17 15 13 10 14 13 12 13 10 9 11 10 8 8 7 3 3 3 2 4 4 2 2 2 3 8 8 2
Wind_Direction_500mb
263 262 265 269 274 275 282 288 295 300 306 315 314 307 275 268 283 315 300 285 279 282 274 282 285 280 275 256 262 358 296 183 263 285 267 283 294 332 292 279 237 217 232 223 232 242 256 99 201 286 102 51 357 343
264 259 261 265 270 275 283 288 289 296 302 307 302 284 267 262 256 299 293 276 282 268 262 286 271 264 260 265 287 236 249 261 355 309 334 341 301 293 301 289 294 292 252 305 20 293 332 335 143 178 214 358 331 338
245 249 255 261 271 278 283 285 287 290 296 301 291 261 259 261 259 257 265 321 305 292 293 252 253 256 226 229 236 252 256 23 294 299 308 297 275 291 286 288 324 254 8 316 126 238 266 263 236 253 214 283 316 6
241 246 251 262 274 278 282 283 280 284 291 289 267 244 251 255 263 261 245 288 293 294 287 146 233 267 244 215 215 228 259 295 295 262 272 247 267 268 290 298 291 273 133 266 315 307 293 78 52 29 33 0 353 344
237 243 253 268 270 276 274 269 273 279 279 264 246 237 249 260 264 263 268 268 260 252 291 308 293 256 203 199 210 215 220 244 260 259 244 262 269 285 285 286 280 289 309 296 289 317 323 98 15 335 329 12 345 328
239 248 257 262 264 265 261 262 262 265 260 237 229 240 243 253 256 310 297 191 234 220 289 299 308 225 204 210 210 226 233 228 245 248 261 261 258 264 286 272 276 255 252 308 297 309 274 282 303 325 327 350 348 336
242 256 258 259 257 257 258 254 250 240 225 224 240 230 224 225 240 246 262 208 181 208 262 291 261 198 206 204 216 212 221 229 234 244 243 249 263 180 245 264 273 285 290 240 257 267 274 296 306 335 359 340 331 321
246 250 250 249 249 258 248 235 219 212 209 218 211 210 229 274 278 272 239 239 201 240 248 256 273 175 192 190 202 212 221 230 233 234 253 246 249 218 248 253 261 269 286 255 244 254 279 292 325 4 341 338 326 328
243 242 240 250 257 209 201 200 195 200 212 196 177 204 287 261 224 183 208 244 195 238 264 254 282 64 188 201 205 210 224 229 237 217 238 225 228 218 241 264 287 260 256 259 256 284 300 248 234 292 319 348 341 336
225 230 244 241 196 186 190 190 182 175 163 159 149 191 220 145 243 266 68 168 195 215 234 259 269 276 221 209 209 227 203 233 218 221 210 225 250 257 251 253 254 252 269 254 267 305 224 268 71 333 6 9 345 332
221 217 186 174 180 177 183 174 171 166 166 150 193 230 132 149 165 215 211 211 198 224 222 237 241 257 286 276 242 247 256 248 247 177 199 228 250 256 244 237 224 239 235 269 205 211 71 51 22 50 31 6 345 345
168 166 170 180 173 175 173 171 172 156 172 192 127 122 150 196 225 249 224 217 205 258 191 231 213 242 232 271 276 342 272 232 254 130 211 253 253 229 180 176 181 176 170 163 188 22 111 102 79 50 7 348 351 351
165 171 167 170 174 174 179 187 182 170 161 156 186 196 215 192 263 235 207 205 207 237 210 214 208 238 168 160 99 289 255 234 143 200 233 252 107 107 119 159 155 130 159 163 156 136 131 135 97 120 10 351 341 350
158 160 167 172 183 188 186 175 168 160 147 190 179 232 221 199 230 215 286 291 227 257 292 267 229 230 246 182 161 229 240 282 261 228 244 60 92 97 122 124 128 147 163 168 190 155 151 158 143 224 356 343 351 335
166 172 171 170 167 165 161 158 159 155 233 223 198 231 215 246 261 257 283 277 291 6 348 303 241 241 235 231 217 256 240 254 246 310 16 44 53 43 149 140 131 154 142 57 151 151 174 178 157 158 18 10 10 355
149 139 147 153 152 148 148 152 150 164 237 233 235 251 287 298 320 328 280 287 3 5 137 48 333 293 244 221 203 212 211 230 264 240 313 68 18 344 122 143 141 131 68 119 138 167 157 153 171 45 349 4 13 10
118 145 150 142 142 143 138 142 169 206 231 239 244 247 263 292 315 339 287 58 175 191 191 121 252 232 298 255 218 199 226 221 239 271 244 107 45 53 149 141 115 98 116 136 149 137 132 126 135 35 11 67 70 36
124 134 133 132 121 129 143 139 205 230 231 239 265 290 316 306 297 307 322 322 218 169 197 194 233 255 256 298 331 347 326 253 333 345 308 203 6 0 135 117 105 113 131 119 113 120 127 144 171 23 18 54 91 54
133 136 137 138 142 141 143 189 217 263 236 260 273 281 272 308 302 278 271 247 193 159 139 175 239 247 278 285 286 341 15 26 6 335 284 222 176 139 126 120 119 125 117 120 122 119 110 95 92 69 64 78 62 53
135 140 153 148 138 143 161 178 212 272 291 331 306 304 301 271 260 254 272 225 196 174 213 226 242 293 230 296 302 322 38 55 345 353 95 120 126 126 115 120 126 135 130 112 107 100 101 90 73 62 68 58 68 46
109 137 138 133 222 254 293 164 211 246 297 290 322 341 289 270 248 227 229 212 199 221 258 255 262 271 263 282 322 349 7 66 39 116 125 134 153 132 128 128 137 138 135 134 123 111 100 76 54 42 65 57 42 39
147 140 141 155 215 201 284 216 246 282 262 291 325 319 290 262 233 207 191 202 225 233 236 242 268 290 323 354 323 353 349 252 308 205 206 154 149 127 136 142 139 139 130 120 109 112 99 105 87 51 71 84 64 59
131 135 131 183 202 230 236 206 237 217 249 277 298 284 246 267 249 312 251 234 224 350 329 324 334 334 332 331 318 306 289 272 155 169 169 158 137 129 125 129 140 139 140 108 118 121 112 111 112 46 70 87 62 56
136 181 180 187 216 233 180 199 202 249 243 249 222 271 305 355 321 271 275 35 6 0 10 3 359 344 329 302 319 117 27 193 157 143 157 150 131 126 123 106 110 113 132 116 100 107 100 103 113 64 45 60 46 66
244 203 185 219 214 220 230 211 204 197 254 285 240 287 357 341 279 4 339 343 341 341 340 340 335 319 328 138 148 164 142 141 133 166 157 139 138 135 122 122 103 104 117 122 124 118 118 109 103 75 79 56 24 63
249 182 187 201 163 209 269 271 259 276 261 162 211 244 200 275 292 286 295 327 336 333 326 327 310 325 78 183 38 151 154 169 167 132 131 133 124 129 131 122 125 133 121 124 110 112 112 102 93 101 112 98 78 67
272 169 202 324 106 200 256 261 279 266 300 295 177 186 168 191 227 141 295 341 333 328 330 339 243 126 67 77 129 111 102 81 94 116 121 100 105 118 122 129 136 122 117 122 112 108 96 92 101 120 68 97 89 81
244 129 342 124 179 206 232 245 200 233 242 297 309 243 342 33 65 16 5 347 351 351 55 109 129 119 97 104 120 102 99 127 117 113 110 102 95 101 105 124 131 145 113 136 119 138 123 114 111 99 79 67 74 88
217 219 195 227 217 229 190 226 284 290 358 8 352 10 20 48 3 3 343 346 345 125 58 117 129 106 101 113 108 95 103 131 144 131 121 121 125 117 114 113 136 160 145 134 159 110 141 135 101 94 75 103 105 120
189 191 222 240 247 224 182 180 119 71 44 84 75 55 59 69 21 357 13 40 112 126 123 108 119 125 121 122 117 106 102 118 102 131 145 143 143 156 153 138 122 119 158 153 125 112 110 93 29 303 183 217 253 183
146 236 264 280 35 30 122 104 73 48 65 73 66 95 141 132 73 45 48 116 107 121 45 80 97 99 92 99 112 128 131 105 79 90 103 124 128 123 122 139 171 166 160 157 172 144 121 135 248 331 336 230 172 341
218 242 283 260 43 62 108 102 182 248 93 71 86 103 96 64 61 46 83 121 132 78 73 110 112 99 96 94 91 92 100 115 115 105 106 105 112 116 104 106 128 132 135 141 154 177 165 151 173 8 42 39 69 112
254 295 292 330 315 12 141 113 122 294 101 73 72 88 88 68 52 20 89 140 150 84 64 73 83 86 87 92 106 115 114 117 117 134 139 145 167 149 73 86 113 160 177 189 177 214 225 220 277 328 23 20 357 6
Wind_Speed_850mb
58 56 51 47 41 37 35 37 41 42 45 49 41 32 18 14 10 9 11 10 13 15 36 26 24 23 18 16 13 4 10 12 12 9 8 9 13 5 11 20 5 14 11 18 20 17 18 9 20 9 11 10 15 13
65 54 45 42 37 36 39 41 44 42 49 45 35 25 19 16 13 10 10 9 15 22 29 29 30 29 25 22 19 5 8 7 8 3 6 7 12 15 20 16 6 4 13 5 9 4 13 5 11 11 2 4 8 17
54 50 46 40 37 42 46 46 44 43 43 39 30 21 18 18 15 13 13 13 15 22 40 35 29 24 24 24 14 13 10 6 5 6 10 4 8 19 9 14 5 10 24 7 13 13 13 18 17 15 4 3 5 10
51 47 44 41 42 46 45 46 39 41 37 31 21 17 17 14 17 15 12 11 11 13 14 5 7 14 17 24 24 20 18 7 8 12 12 6 8 19 17 24 21 21 5 18 15 11 11 13 14 17 13 9 14 16
51 50 47 50 52 51 47 41 35 35 29 21 17 16 13 14 15 14 15 18 15 11 12 26 31 19 18 19 22 20 16 16 18 9 7 9 27 18 21 22 22 32 21 8 11 17 6 6 4 10 14 12 13 17
50 49 55 55 53 50 40 34 33 26 21 20 19 16 10 8 5 5 6 8 17 10 15 8 8 7 30 21 22 20 16 18 25 9 12 22 36 8 7 12 27 29 26 7 12 15 17 16 18 11 11 12 13 20
53 55 55 51 43 39 35 33 28 23 21 24 22 20 13 9 10 13 5 6 16 9 6 13 12 23 25 22 25 22 21 24 26 19 17 33 28 14 6 22 41 36 28 8 8 13 17 11 8 5 5 10 18 25
57 48 44 40 36 39 35 29 26 21 18 18 19 17 9 10 16 17 24 22 7 7 9 6 11 19 27 18 16 26 26 25 15 17 18 20 19 13 10 27 25 23 22 16 11 13 9 3 1 3 6 14 25 25
45 40 37 35 33 26 32 31 24 23 20 17 18 7 9 10 12 10 5 10 14 10 7 10 11 4 14 18 14 17 17 10 19 15 25 15 10 12 18 21 17 14 13 9 9 4 12 6 5 5 12 13 19 21
37 35 35 30 31 37 30 26 25 22 22 15 7 6 10 11 10 10 5 10 14 13 14 20 31 18 6 12 12 6 15 11 7 14 19 8 20 45 45 36 22 21 20 14 12 12 12 3 1 4 6 11 13 18
34 28 29 37 32 35 30 30 26 24 18 13 11 2 11 6 6 8 9 11 13 9 15 21 27 24 10 9 7 7 5 6 6 8 9 7 9 21 24 28 31 25 13 1 3 3 4 4 5 3 7 11 12 15
35 40 37 28 31 33 31 28 26 25 12 10 4 6 5 8 8 8 7 8 10 8 10 13 13 14 11 3 5 4 7 5 8 6 3 6 8 14 17 16 16 11 12 13 8 3 7 6 6 4 4 8 12 14
40 32 31 31 30 29 27 26 29 22 13 7 6 6 6 5 1 10 14 9 8 9 6 8 7 8 11 7 4 4 9 9 7 5 6 8 2 10 8 12 14 17 18 14 6 6 5 8 5 5 5 7 11 17
39 29 29 28 26 25 24 25 33 30 11 8 12 3 9 11 11 12 13 4 6 14 5 9 11 8 7 8 8 6 10 5 6 7 7 6 12 15 11 12 18 19 14 10 5 9 9 4 8 0 2 6 11 17
30 27 25 26 25 24 26 30 39 29 3 10 9 6 16 24 16 14 11 17 8 15 8 4 7 8 7 6 6 7 4 6 7 6 6 9 6 6 5 17 19 15 9 1 6 7 9 4 6 5 7 6 12 18
32 34 23 24 25 26 29 34 31 6 6 8 11 12 19 19 12 8 11 7 5 8 4 3 3 6 8 6 9 12 7 7 5 2 8 2 9 3 4 18 18 9 4 8 9 10 8 8 3 1 5 4 7 16
30 12 27 29 30 35 40 26 12 9 10 8 11 19 19 18 16 13 9 4 6 5 2 4 4 8 11 8 7 7 5 6 10 11 1 5 12 6 6 18 14 8 13 13 7 9 9 7 5 1 5 3 7 13
27 30 33 35 32 33 20 10 6 10 13 18 15 10 5 11 15 17 10 4 6 4 5 4 2 6 7 9 9 13 9 6 1 1 4 2 6 5 11 16 11 11 16 9 8 10 8 5 3 1 6 9 9 13
28 34 41 38 28 16 8 8 6 8 17 10 9 15 14 11 13 14 11 8 6 7 10 4 6 6 5 1 17 16 21 20 12 14 11 7 9 17 17 10 11 17 13 14 12 14 13 8 6 3 8 9 12 14
22 26 33 29 22 5 7 6 7 8 9 8 12 13 13 10 12 10 12 14 18 9 7 5 7 11 6 14 18 9 4 3 10 11 9 17 21 21 13 17 16 13 18 16 13 18 12 6 9 14 12 12 14 17
26 17 26 20 4 7 4 6 6 7 10 11 9 13 10 10 13 18 18 18 17 9 7 15 22 25 18 13 8 5 4 5 12 3 13 12 17 20 18 18 12 20 14 14 14 14 13 8 9 12 10 17 13 6
12 22 12 7 2 1 4 4 4 5 6 13 12 10 11 9 14 18 19 19 17 22 18 20 20 17 17 13 11 7 4 5 11 10 4 9 12 18 17 17 14 15 14 13 13 13 11 6 6 7 10 9 17 19
18 12 4 4 3 4 3 3 4 5 4 4 8 8 8 4 8 3 6 8 8 5 14 15 16 16 14 11 10 17 21 5 8 14 13 13 11 19 17 14 14 16 13 14 11 10 8 7 6 5 7 8 7 11
11 4 5 6 8 5 8 7 5 4 4 4 4 6 7 8 12 7 2 2 6 11 13 17 17 17 15 16 9 3 1 3 5 18 19 17 23 19 15 18 14 16 13 15 14 13 11 10 7 4 7 11 9 8
5 4 7 7 8 5 6 5 8 7 4 2 1 5 3 8 4 3 5 7 13 11 10 11 14 10 9 3 8 2 7 14 11 16 19 29 21 19 21 17 16 15 15 16 12 11 10 8 5 7 7 7 13 12
6 11 10 8 9 4 1 4 3 6 7 9 7 5 3 3 3 1 4 7 8 11 12 12 10 10 2 1 3 9 12 7 7 18 26 17 14 28 21 19 16 14 14 11 9 10 9 6 9 8 12 14 13 10
5 3 4 0 1 4 6 7 10 10 5 4 4 10 10 5 5 5 2 8 12 13 12 8 2 2 6 7 10 15 14 14 20 30 23 22 19 20 18 15 17 12 13 12 12 9 10 9 7 5 4 6 11 10
4 4 1 4 9 12 5 6 4 5 6 6 9 4 5 7 5 7 8 14 13 13 8 8 17 7 10 16 18 17 13 14 22 23 24 22 19 17 21 16 16 18 15 14 12 9 8 6 8 6 5 8 11 11
5 8 8 8 12 8 5 5 4 5 4 6 7 6 8 7 10 11 13 15 10 9 9 17 15 14 13 19 16 15 15 16 18 24 27 21 18 14 12 10 12 12 15 14 11 9 10 7 9 5 5 6 4 5
6 8 6 8 5 3 4 8 2 6 4 5 4 2 4 4 7 11 10 8 12 11 17 10 10 8 13 16 18 14 13 14 5 7 18 13 13 18 11 13 14 11 15 12 14 14 14 7 6 6 4 4 4 4
5 5 7 4 4 3 10 21 16 7 9 6 8 6 4 5 7 14 11 20 22 16 9 10 17 19 20 19 16 17 14 9 14 18 14 12 15 10 7 8 10 12 10 8 11 8 2 2 2 3 1 3 5 1
5 6 5 5 4 24 12 10 4 4 11 13 8 10 9 8 8 12 11 9 20 17 12 10 16 19 17 17 20 25 22 18 16 15 11 17 17 12 7 7 7 7 7 7 6 4 4 1 1 5 6 5 5 5
6 5 9 5 4 3 17 17 10 4 6 26 17 15 12 6 7 13 15 20 15 9 16 19 19 16 17 15 13 10 14 13 12 13 10 9 11 10 8 8 7 3 3 3 2 4 4 2 2 2 3 8 8 2
Wind_Direction_850mb
263 262 265 269 274 275 282 288 295 300 306 315 314 307 275 268 283 315 300 285 279 282 274 282 285 280 275 256 262 358 296 183 263 285 267 283 294 332 292 279 237 217 232 223 232 242 256 99 201 286 102 51 357 343
264 259 261 265 270 275 283 288 289 296 302 307 302 284 267 262 256 299 293 276 282 268 262 286 271 264 260 265 287 236 249 261 355 309 334 341 301 293 301 289 294 292 252 305 20 293 332 335 143 178 214 358 331 338
245 249 255 261 271 278 283 285 287 290 296 301 291 261 259 261 259 257 265 321 305 292 293 252 253 256 226 229 236 252 256 23 294 299 308 297 275 291 286 288 324 254 8 316 126 238 266 263 236 253 214 283 316 6
241 246 251 262 274 278 282 283 280 284 291 289 267 244 251 255 263 261 245 288 293 294 287 146 233 267 244 215 215 228 259 295 295 262 272 247 267 268 290 298 291 273 133 266 315 307 293 78 52 29 33 0 353 344
237 243 253 268 270 276 274 269 273 279 279 264 246 237 249 260 264 263 268 268 260 252 291 308 293 256 203 199 210 215 220 244 260 259 244 262 269 285 285 286 280 289 309 296 289 317 323 98 15 335 329 12 345 328
239 248 257 262 264 265 261 262 262 265 260 237 229 240 243 253 256 310 297 191 234 220 289 299 308 225 204 210 210 226 233 228 245 248 261 261 258 264 286 272 276 255 252 308 297 309 274 282 303 325 327 350 348 336
242 256 258 259 257 257 258 254 250 240 225 224 240 230 224 225 240 246 262 208 181 208 262 291 261 198 206 204 216 212 221 229 234 244 243 249 263 180 245 264 273 285 290 240 257 267 274 296 306 335 359 340 331 321
246 250 250 249 249 258 248 235 219 212 209 218 211 210 229 274 278 272 239 239 201 240 248 256 273 175 192 190 202 212 221 230 233 234 253 246 249 218 248 253 261 269 286 255 244 254 279 292 325 4 341 338 326 328
243 242 240 250 257 209 201 200 195 200 212 196 177 204 287 261 224 183 208 244 195 238 264 254 282 64 188 201 205 210 224 229 237 217 238 225 228 218 241 264 287 260 256 259 256 284 300 248 234 292 319 348 341 336
225 230 244 241 196 186 190 190 182 175 163 159 149 191 220 145 243 266 68 168 195 215 234 259 269 276 221 209 209 227 203 233 218 221 210 225 250 257 251 253 254 252 269 254 267 305 224 268 71 333 6 9 345 332
221 217 186 174 180 177 183 174 171 166 166 150 193 230 132 149 165 215 211 211 198 224 222 237 241 257 286 276 242 247 256 248 247 177 199 228 250 256 244 237 224 239 235 269 205 211 71 51 22 50 31 6 345 345
168 166 170 180 173 175 173 171 172 156 172 192 127 122 150 196 225 249 224 217 205 258 191 231 213 242 232 271 276 342 272 232 254 130 211 253 253 229 180 176 181 176 170 163 188 22 111 102 79 50 7 348 351 351
165 171 167 170 174 174 179 187 182 170 161 156 186 196 215 192 263 235 207 205 207 237 210 214 208 238 168 160 99 289 255 234 143 200 233 252 107 107 119 159 155 130 159 163 156 136 131 135 97 120 10 351 341 350
158 160 167 172 183 188 186 175 168 160 147 190 179 232 221 199 230 215 286 291 227 257 292 267 229 230 246 182 161 229 240 282 261 228 244 60 92 97 122 124 128 147 163 168 190 155 151 158 143 224 356 343 351 335
166 172 171 170 167 165 161 158 159 155 233 223 198 231 215 246 261 257 283 277 291 6 348 303 241 241 235 231 217 256 240 254 246 310 16 44 53 43 149 140 131 154 142 57 151 151 174 178 157 158 18 10 10 355
149 139 147 153 152 148 148 152 150 164 237 233 235 251 287 298 320 328 280 287 3 5 137 48 333 293 244 221 203 212 211 230 264 240 313 68 18 344 122 143 141 131 68 119 138 167 157 153 171 45 349 4 13 10
118 145 150 142 142 143 138 142 169 206 231 239 244 247 263 292 315 339 287 58 175 191 191 121 252 232 298 255 218 199 226 221 239 271 244 107 45 53 149 141 115 98 116 136 149 137 132 126 135 35 11 67 70 36
124 134 133 132 121 129 143 139 205 230 231 239 265 290 316 306 297 307 322 322 218 169 197 194 233 255 256 298 331 347 326 253 333 345 308 203 6 0 135 117 105 113 131 119 113 120 127 144 171 23 18 54 91 54
133 136 137 138 142 141 143 189 217 263 236 260 273 281 272 308 302 278 271 247 193 159 139 175 239 247 278 285 286 341 15 26 6 335 284 222 176 139 126 120 119 125 117 120 122 119 110 95 92 69 64 78 62 53
135 140 153 148 138 143 161 178 212 272 291 331 306 304 301 271 260 254 272 225 196 174 213 226 242 293 230 296 302 322 38 55 345 353 95 120 126 126 115 120 126 135 130 112 107 100 101 90 73 62 68 58 68 46
109 137 138 133 222 254 293 164 211 246 297 290 322 341 289 270 248 227 229 212 199 221 258 255 262 271 263 282 322 349 7 66 39 116 125 134 153 132 128 128 137 138 135 134 123 111 100 76 54 42 65 57 42 39
147 140 141 155 215 201 284 216 246 282 262 291 325 319 290 262 233 207 191 202 225 233 236 242 268 290 323 354 323 353 349 252 308 205 206 154 149 127 136 142 139 139 130 120 109 112 99 105 87 51 71 84 64 59
131 135 131 183 202 230 236 206 237 217 249 277 298 284 246 267 249 312 251 234 224 350 329 324 334 334 332 331 318 306 289 272 155 169 169 158 137 129 125 129 140 139 140 108 118 121 112 111 112 46 70 87 62 56
136 181 180 187 216 233 180 199 202 249 243 249 222 271 305 355 321 271 275 35 6 0 10 3 359 344 329 302 319 117 27 193 157 143 157 150 131 126 123 106 110 113 132 116 100 107 100 103 113 64 45 60 46 66
244 203 185 219 214 220 230 211 204 197 254 285 240 287 357 341 279 4 339 343 341 341 340 340 335 319 328 138 148 164 142 141 133 166 157 139 138 135 122 122 103 104 117 122 124 118 118 109 103 75 79 56 24 63
249 182 187 201 163 209 269 271 259 276 261 162 211 244 200 275 292 286 295 327 336 333 326 327 310 325 78 183 38 151 154 169 167 132 131 133 124 129 131 122 125 133 121 124 110 112 112 102 93 101 112 98 78 67
272 169 202 324 106 200 256 261 279 266 300 295 177 186 168 191 227 141 295 341 333 328 330 339 243 126 67 77 129 111 102 81 94 116 121 100 105 118 122 129 136 122 117 122 112 108 96 92 101 120 68 97 89 81
244 129 342 124 179 206 232 245 200 233 242 297 309 243 342 33 65 16 5 347 351 351 55 109 129 119 97 104 120 102 99 127 117 113 110 102 95 101 105 124 131 145 113 136 119 138 123 114 111 99 79 67 74 88
217 219 195 227 217 229 190 226 284 290 358 8 352 10 20 48 3 3 343 346 345 125 58 117 129 106 101 113 108 95 103 131 144 131 121 121 125 117 114 113 136 160 145 134 159 110 141 135 101 94 75 103 105 120
189 191 222 240 247 224 182 180 119 71 44 84 75 55 59 69 21 357 13 40 112 126 123 108 119 125 121 122 117 106 102 118 102 131 145 143 143 156 153 138 122 119 158 153 125 112 110 93 29 303 183 217 253 183
146 236 264 280 35 30 122 104 73 48 65 73 66 95 141 132 73 45 48 116 107 121 45 80 97 99 92 99 112 128 131 105 79 90 103 124 128 123 122 139 171 166 160 157 172 144 121 135 248 331 336 230 172 341
218 242 283 260 43 62 108 102 182 248 93 71 86 103 96 64 61 46 83 121 132 78 73 110 112 99 96 94 91 92 100 115 115 105 106 105 112 116 104 106 128 132 135 141 154 177 165 151 173 8 42 39 69 112
254 295 292 330 315 12 141 113 122 294 101 73 72 88 88 68 52 20 89 140 150 84 64 73 83 86 87 92 106 115 114 117 117 134 139 145 167 149 73 86 113 160 177 189 177 214 225 220 277 328 23 20 357 6